Tracking 31027 objects as of 19-Jul-2025
HD Live streaming from Space Station
objects crossing your sky now

AZUR (GRS A)

Track AZUR (GRS A) now!
10-day predictions
AZUR (GRS A) is classified as:


NORAD ID: 4221
Int'l Code: 1969-097A
Perigee: 338.1 km
Apogee: 787.3 km
Inclination: 102.7 °
Period: 95.8 minutes
Semi major axis: 6933 km
RCS: 0.3339 m2 (medium)
Launch date: November 8, 1969
Source: Germany (GER)
Launch site: AIR FORCE WESTERN TEST RANGE (AFWTR)
Your satellite tracking list
FENGYUN 1C DEB
Track 1 satellite(s)




NASA's NSSDC Master Catalog

Two Line Element Set (TLE):
1 04221U 69097A   25199.48863547  .00030424  00000-0  67107-3 0  9998
2 04221 102.6688 113.6997 0323939  79.6976 284.0579 15.03688814674759
Source of the keplerian elements: AFSPC